| time (UTC) | temp F | wind direction | speed knots | gust knots | rain 1hr in | rain 24hr in | rain mn in | humidity % | barometer mb |
| 20260507230031 | 64 | 17 | 0.0 | 5.2 | 0.00 | 0.00 | 0.00 | 51 | 1010.5 |
| 20260507223035 | 64 | 111 | 0.9 | 4.3 | 0.00 | 0.00 | 0.00 | 49 | 1010.6 |
| 20260507221515 | 64 | 131 | 0.9 | 5.2 | 0.00 | 0.00 | 0.00 | 49 | 1010.6 |
| 20260507220018 | 65 | 110 | 2.6 | 8.7 | 0.00 | 0.00 | 0.00 | 47 | 1010.8 |
| 20260507214526 | 63 | 115 | 1.7 | 3.5 | 0.00 | 0.00 | 0.00 | 56 | 1011.0 |
| 20260507213018 | 62 | 59 | 0.9 | 4.3 | 0.00 | 0.00 | 0.00 | 58 | 1011.4 |
| 20260507211553 | 59 | 111 | 1.7 | 6.1 | 0.00 | 0.00 | 0.00 | 67 | 1011.8 |
| 20260507210049 | 60 | 175 | 1.7 | 7.8 | 0.00 | 0.00 | 0.00 | 61 | 1012.1 |
| 20260507204553 | 62 | 92 | 1.7 | 5.2 | 0.00 | 0.00 | 0.00 | 37 | 1012.2 |
| 20260507203058 | 64 | 232 | 1.7 | 7.0 | 0.00 | 0.00 | 0.00 | 33 | 1011.5 |
| 20260507203000 | 64 | 136 | 1.7 | 7.0 | 0.00 | 0.00 | 0.00 | 32 | 1011.5 |
| 20260507201606 | 65 | 184 | 0.0 | 2.6 | 0.00 | 0.00 | 0.00 | 32 | 1011.3 |
| 20260507200057 | 64 | 217 | 1.7 | 4.3 | 0.00 | 0.00 | 0.00 | 31 | 1011.4 |
| 20260507194533 | 64 | 325 | 0.9 | 2.6 | 0.00 | 0.00 | 0.00 | 31 | 1011.9 |
| 20260507193029 | 64 | 234 | 0.9 | 1.7 | 0.00 | 0.00 | 0.00 | 31 | 1012.0 |
| 20260507191545 | 63 | 171 | 0.0 | 3.5 | 0.00 | 0.00 | 0.00 | 32 | 1012.2 |
| 20260507171515 | 59 | 312 | 2.6 | 7.0 | 0.00 | 0.00 | 0.00 | 30 | 1013.4 |
| 20260507170013 | 61 | 331 | 4.3 | 8.7 | 0.00 | 0.00 | 0.00 | 28 | 1013.5 |
| 20260507164507 | 60 | 319 | 2.6 | 7.8 | 0.00 | 0.00 | 0.00 | 30 | 1013.5 |
| 20260507163119 | 58 | 273 | 2.6 | 8.7 | 0.00 | 0.00 | 0.00 | 30 | 1013.8 |
| 20260507041514 | 38 | 103 | 0.0 | 1.7 | 0.00 | 0.00 | 0.00 | 51 | 1014.9 |
| 20260507040051 | 39 | 107 | 0.0 | 1.7 | 0.00 | 0.00 | 0.00 | 48 | 1015.0 |
| 20260507034518 | 41 | 102 | 0.0 | 0.9 | 0.00 | 0.00 | 0.00 | 45 | 1015.1 |
| 20260507033044 | 42 | 102 | 0.9 | 1.7 | 0.00 | 0.00 | 0.00 | 44 | 1015.2 |
| 20260507031519 | 44 | 104 | 0.0 | 0.9 | 0.00 | 0.00 | 0.00 | 41 | 1015.1 |
| 20260507030053 | 45 | 104 | 0.0 | 1.7 | 0.00 | 0.00 | 0.00 | 38 | 1015.1 |
| 20260507024514 | 47 | 104 | 0.9 | 1.7 | 0.00 | 0.00 | 0.00 | 35 | 1014.9 |
| 20260507023056 | 49 | 104 | 0.0 | 1.7 | 0.00 | 0.00 | 0.00 | 33 | 1014.9 |
| 20260507021522 | 51 | 109 | 0.0 | 1.7 | 0.00 | 0.00 | 0.00 | 29 | 1014.9 |
| 20260507020056 | 52 | 121 | 0.0 | 0.9 | 0.00 | 0.00 | 0.00 | 26 | 1014.9 |
| 20260507014543 | 53 | 121 | 0.0 | 0.0 | 0.00 | 0.00 | 0.00 | 25 | 1014.8 |
| 20260507013054 | 53 | 98 | 0.0 | 2.6 | 0.00 | 0.00 | 0.00 | 25 | 1014.9 |
| 20260507011536 | 53 | 39 | 0.0 | 1.7 | 0.00 | 0.00 | 0.00 | 24 | 1015.1 |
| 20260507010017 | 55 | 111 | 0.0 | 3.5 | 0.00 | 0.00 | 0.00 | 22 | 1015.2 |
| 20260507004600 | 55 | 107 | 1.7 | 3.5 | 0.00 | 0.00 | 0.00 | 21 | 1015.3 |
| 20260507003039 | 55 | 79 | 0.9 | 6.1 | 0.00 | 0.00 | 0.00 | 24 | 1015.5 |
| 20260507001540 | 56 | 144 | 2.6 | 10.4 | 0.00 | 0.00 | 0.00 | 22 | 1015.8 |
| 20260507000046 | 57 | 128 | 1.7 | 5.2 | 0.00 | 0.00 | 0.00 | 22 | 1015.8 |
| 20260506234541 | 56 | 28 | 1.7 | 10.4 | 0.00 | 0.00 | 0.00 | 23 | 1016.3 |
| 20260506233044 | 57 | 128 | 0.9 | 9.6 | 0.00 | 0.00 | 0.00 | 22 | 1016.2 |
| 20260506231544 | 57 | 89 | 1.7 | 5.2 | 0.00 | 0.00 | 0.00 | 22 | 1016.2 |